Terminal Aerodrome Forecast
Issued by NWS Albany, NY

Home | Current Version | Previous Version | Text Only | Print | Product List | Glossary On
Versions: 1 2 3 4 5 6 7 8 9 10 11 12 13 14
000
FTUS41 KALY 211100 RRA
TAFALB
TAF
KALB 211153Z 2112/2212 17008KT P6SM BKN010 BKN070
      TEMPO 2112/2115 SCT020 BKN070
     FM211500 18008KT P6SM SCT020 SCT070 SCT250
     FM212100 21007KT P6SM VCSH BKN040
     FM220000 29005KT P6SM SCT080=

USA.gov is the U.S. government's official web portal to all federal, state and local government web resources and services.